Spirit of St Louis, MO

2:24 AM CST on December 06, 2019 (GMT -0600)
Spirit Of Saint Louis

Weather History for KSUS - October, 2019

Change the Weather History Date:

Saturday, October 19, 2019

  Actual Average Record
Temperature  
Mean Temperature 56 °F -  
Max Temperature 71 °F 65 °F 82 °F (2003)
Min Temperature 43 °F 41 °F 27 °F (1997)
Degree Days  
Heating Degree Days 9    
Growing Degree Days 6 (Base 50)    
Moisture  
Dew Point 49 °F    
Average Humidity 79    
Maximum Humidity 100    
Minimum Humidity 44    
Precipitation  
Precipitation 0.01 in - - ()
Sea Level Pressure  
Sea Level Pressure 29.80 in    
Wind  
Wind Speed 2 mph (WSW)    
Max Wind Speed 6 mph    
Max Gust Speed -    
Visibility 9 miles    
Events Rain    
Averages and records for this station are not official NWS values.
T = Trace of Precipitation, MM = Missing Value Source: NWS Daily Summary

Daily Weather History Graph

Daily Weather History Graph

Search for Another Location

Airport or City:

Astronomy

Oct. 19, 2019 Rise Set
Actual Time 7:15 AM CDT 6:18 PM CDT
Civil Twilight 6:48 AM CDT 6:45 PM CDT
Nautical Twilight 6:17 AM CDT 7:16 PM CDT
Astronomical Twilight 5:46 AM CDT 7:47 PM CDT
Moon 10:30 PM CDT (10/19) 12:45 PM CDT (10/19)
Length of Visible Light 11h 57m
Length of Day
11h 03m
Waning Gibbous, 69% of the Moon is Illuminated
Oct 19
Waning Gibbous
Oct 21
Last Quarter
Oct 27
New
Nov 4
First Quarter
Nov 12
Full

Hourly Weather History & Observations

Time (CDT) Temp. Dew Point Humidity Pressure Visibility Wind Dir Wind Speed Gust Speed Precip Events Conditions
12:54 AM 43.0 °F 41.0 °F 93% 29.83 in 10.0 mi Calm Calm - N/A   Clear
1:54 AM 45.0 °F 42.1 °F 90% 29.83 in 10.0 mi Calm Calm - N/A   Clear
2:54 AM 46.0 °F 44.1 °F 93% 29.82 in 10.0 mi Calm Calm - N/A   Clear
3:54 AM 46.9 °F 44.1 °F 90% 29.82 in 10.0 mi Calm Calm - N/A   Clear
4:54 AM 48.0 °F 46.0 °F 93% 29.83 in 10.0 mi Calm Calm - N/A   Clear
5:54 AM 50.0 °F 46.0 °F 86% 29.83 in 10.0 mi ESE 3.5 mph - N/A   Clear
6:54 AM 46.0 °F 44.1 °F 93% 29.84 in 10.0 mi Calm Calm - N/A   Clear
7:54 AM 44.1 °F 42.1 °F 93% 29.83 in 10.0 mi Calm Calm - N/A   Clear
8:54 AM 54.0 °F 46.0 °F 75% 29.83 in 10.0 mi Calm Calm - N/A   Clear
9:54 AM 59.0 °F 46.0 °F 62% 29.81 in 10.0 mi Variable 3.5 mph - N/A   Clear
10:54 AM 64.0 °F 46.9 °F 54% 29.81 in 10.0 mi South 5.8 mph - N/A   Clear
11:54 AM 66.0 °F 46.9 °F 50% 29.79 in 10.0 mi SSE 5.8 mph - N/A   Clear
12:54 PM 69.1 °F 46.0 °F 44% 29.76 in 10.0 mi Calm Calm - N/A   Clear
1:54 PM 69.1 °F 46.9 °F 45% 29.75 in 10.0 mi WSW 5.8 mph - N/A   Clear
2:54 PM 69.1 °F 48.9 °F 49% 29.73 in 10.0 mi NW 4.6 mph - N/A   Clear
3:54 PM 66.9 °F 50.0 °F 54% 29.75 in 10.0 mi West 5.8 mph - N/A   Overcast
4:54 PM 63.0 °F 54.0 °F 72% 29.74 in 10.0 mi Calm Calm - 0.00 in Rain Light Rain
5:54 PM 61.0 °F 55.0 °F 81% 29.76 in 10.0 mi WSW 5.8 mph - 0.00 in   Mostly Cloudy
6:54 PM 59.0 °F 55.0 °F 87% 29.78 in 10.0 mi WSW 3.5 mph - 0.00 in Rain Light Rain
7:54 PM 59.0 °F 55.9 °F 90% 29.79 in 10.0 mi Calm Calm - 0.01 in   Overcast
8:54 PM 57.9 °F 55.9 °F 93% 29.79 in 10.0 mi Calm Calm - N/A   Overcast
9:54 PM 57.9 °F 55.0 °F 90% 29.80 in 10.0 mi WSW 3.5 mph - N/A   Overcast
10:54 PM 55.9 °F 54.0 °F 93% 29.81 in 10.0 mi West 3.5 mph - N/A   Mostly Cloudy
11:29 PM 53.1 °F 53.1 °F 100% 29.81 in 1.8 mi WSW 3.5 mph - N/A   Mostly Cloudy
11:54 PM 52.0 °F 52.0 °F 100% 29.82 in 1.0 mi West 5.8 mph - N/A   Mostly Cloudy